EW5191 Weather Reports


Display with metric or nautical units.
time (UTC)temp
F
wind
direction
speed
MPH
gust
MPH
rain 1hr
in
rain 24hr
in
rain mn
in
humidity
%
barometer
mb
20260503221504 72 49 4.0 17.0 0.00 0.00 0.00 26 1006.6
20260503220001 73 31 9.0 13.0 0.00 0.00 0.00 26 1006.7
20260503214600 72 78 1.0 5.0 0.00 0.00 0.00 27 1007.0
20260503213132 71 331 3.0 9.0 0.00 0.00 0.00 27 1007.3
20260503211620 70 350 3.0 9.0 0.00 0.00 0.00 27 1007.5
20260503210055 71 4 8.0 16.0 0.00 0.00 0.00 26 1007.6
20260503204608 71 24 8.0 13.0 0.00 0.00 0.00 27 1007.7
20260503203054 70 240 1.0 6.0 0.00 0.00 0.00 27 1008.0
20260503201555 70 10 7.0 16.0 0.00 0.00 0.00 27 1008.2
20260503200054 70 350 4.0 10.0 0.00 0.00 0.00 27 1008.3
20260503194552 69 207 2.0 11.0 0.00 0.00 0.00 27 1008.6
20260503193050 70 348 1.0 12.0 0.00 0.00 0.00 28 1008.9
20260503191600 70 38 7.0 12.0 0.00 0.00 0.00 27 1009.1
20260503190044 70 85 0.0 11.0 0.00 0.00 0.00 28 1009.4
20260503184553 68 149 3.0 12.0 0.00 0.00 0.00 27 1009.7
20260503183044 69 8 1.0 10.0 0.00 0.00 0.00 29 1009.8
20260503181536 68 106 1.0 5.0 0.00 0.00 0.00 31 1010.2
20260503180035 66 292 1.0 10.0 0.00 0.00 0.00 33 1010.5
20260503174538 66 360 1.0 7.0 0.00 0.00 0.00 36 1010.8
20260503173026 64 23 3.0 7.0 0.00 0.00 0.00 37 1011.1
20260503171529 64 33 5.0 10.0 0.00 0.00 0.00 39 1011.3
20260503081536 50 128 0.0 1.0 0.00 0.00 0.00 48 1012.6
20260503071530 52 57 0.0 1.0 0.00 0.00 0.00 45 1012.8
20260503054514 55 239 2.0 3.0 0.00 0.00 0.00 35 1012.4
20260503053007 55 235 2.0 3.0 0.00 0.00 0.00 33 1012.3
20260503051505 56 230 2.0 3.0 0.00 0.00 0.00 31 1012.3
20260503050005 57 300 0.0 4.0 0.00 0.00 0.00 30 1012.3
20260503044504 58 207 2.0 9.0 0.00 0.00 0.00 28 1012.2
20260503043003 57 246 0.0 5.0 0.00 0.00 0.00 29 1012.0
20260503041505 58 254 1.0 2.0 0.00 0.00 0.00 28 1011.9
20260503040007 59 154 3.0 4.0 0.00 0.00 0.00 27 1011.7
20260503034505 57 173 2.0 3.0 0.00 0.00 0.00 29 1011.5
20260503033005 60 289 3.0 5.0 0.00 0.00 0.00 26 1011.3
20260503031503 65 126 1.0 2.0 0.00 0.00 0.00 21 1011.2
20260503030006 64 139 1.0 2.0 0.00 0.00 0.00 22 1011.1
20260503024502 65 139 0.0 0.0 0.00 0.00 0.00 21 1011.0
20260503023002 63 139 1.0 2.0 0.00 0.00 0.00 22 1010.9
20260503021502 67 47 0.0 1.0 0.00 0.00 0.00 21 1010.9
20260503020002 68 47 0.0 0.0 0.00 0.00 0.00 21 1010.8
20260503014501 69 47 1.0 4.0 0.00 0.00 0.00 19 1010.7
20260503013003 70 28 1.0 6.0 0.00 0.00 0.00 19 1010.6
20260503011630 71 51 4.0 7.0 0.00 0.00 0.00 17 1010.6
20260503010100 72 352 1.0 12.0 0.00 0.00 0.00 17 1010.7
20260503004602 74 55 2.0 9.0 0.00 0.00 0.00 16 1010.9
20260503003100 75 36 4.0 11.0 0.00 0.00 0.00 16 1010.9
20260503001558 75 35 2.0 8.0 0.00 0.00 0.00 16 1011.0
20260503000058 74 30 10.0 14.0 0.00 0.00 0.00 16 1011.1
20260502234612 73 48 7.0 13.0 0.00 0.00 0.00 16 1011.2
20260502233057 73 80 8.0 13.0 0.00 0.00 0.00 17 1011.3
20260502231550 74 48 2.0 15.0 0.00 0.00 0.00 17 1011.6
20260502230050 77 51 8.0 13.0 0.00 0.00 0.00 15 1011.6
20260502224544 75 64 4.0 11.0 0.00 0.00 0.00 16 1011.9
20260502223057 74 23 5.0 8.0 0.00 0.00 0.00 15 1012.2